Haines, AK

11:43 PM AKDT on May 26, 2017 (GMT -0800)
Haines

Weather History for PAHN - August, 2014

Change the Weather History Date:

Monday, August 11, 2014

  Actual Average Record
Temperature  
Mean Temperature 57 °F -  
Max Temperature 60 °F 63 °F 85 °F (1989)
Min Temperature 55 °F 50 °F 37 °F (1973)
Degree Days  
Heating Degree Days 8    
Growing Degree Days 7 (Base 50)    
Moisture  
Dew Point 56 °F    
Average Humidity 97    
Maximum Humidity 100    
Minimum Humidity 93    
Precipitation  
Precipitation 0.74 in - - ()
Sea Level Pressure  
Sea Level Pressure 29.93 in    
Wind  
Wind Speed 4 mph (ESE)    
Max Wind Speed 12 mph    
Max Gust Speed 18 mph    
Visibility 4 miles    
Events Fog , Rain    
Averages and records for this station are not official NWS values.
T = Trace of Precipitation, MM = Missing Value Source: NWS Daily Summary

Daily Weather History Graph

Daily Weather History Graph

Search for Another Location

Airport or City:

Trip Planner

Search our weather history database for the weather conditions in past years. The results will help you decide how hot, cold, wet, or windy it might be!

Date:

Astronomy

Aug. 11, 2014 Rise Set
Actual Time 5:11 AM AKDT 9:01 PM AKDT
Civil Twilight 4:19 AM AKDT 9:52 PM AKDT
Nautical Twilight 3:01 AM AKDT 11:08 PM AKDT
Astronomical Twilight 1:39 AM AKDT 12:34 AM AKDT
Moon 8:54 PM AKDT (8/11) 6:56 AM AKDT (8/11)
Length of Visible Light 17h 33m
Length of Day
15h 50m
Full, 98% of the Moon is Illuminated
Aug 11
Full
Aug 17
Last Quarter
Aug 25
New
Sep 2
First Quarter
Sep 8
Full

Hourly Weather History & Observations

Time (AKDT) Temp. Dew Point Humidity Pressure Visibility Wind Dir Wind Speed Gust Speed Precip Events Conditions
12:54 AM 57.9 °F 57.0 °F 97% 29.99 in 10.0 mi East 3.5 mph - N/A   Overcast
1:54 AM 59.0 °F 57.0 °F 93% 29.99 in 10.0 mi SE 5.8 mph - N/A   Overcast
2:54 AM 57.9 °F 57.0 °F 97% 29.99 in 10.0 mi ENE 5.8 mph - N/A   Overcast
3:54 AM 57.9 °F 57.0 °F 97% 29.99 in 10.0 mi ESE 4.6 mph - N/A   Overcast
4:54 AM 57.9 °F 57.0 °F 97% 29.99 in 10.0 mi SE 4.6 mph - N/A   Overcast
5:54 AM 55.0 °F 54.0 °F 96% 29.99 in 4.0 mi Calm Calm - N/A   Overcast
6:42 AM 55.0 °F 54.0 °F 96% 29.97 in 2.0 mi Calm Calm - N/A   Overcast
6:48 AM 55.4 °F 53.6 °F 94% 29.97 in 0.8 mi Calm Calm - N/A   Overcast
6:49 AM 55.9 °F 54.0 °F 93% 29.99 in 0.8 mi Calm Calm - N/A   Overcast
7:21 AM 55.9 °F 55.0 °F 97% 29.97 in 2.0 mi WNW 4.6 mph - N/A   Overcast
7:28 AM 55.9 °F 55.9 °F 100% 29.97 in 8.0 mi WNW 4.6 mph - N/A   Overcast
7:54 AM 55.9 °F 55.9 °F 100% 29.99 in 3.0 mi WNW 3.5 mph - N/A   Overcast
8:17 AM 57.0 °F 55.9 °F 96% 29.98 in 1.8 mi WNW 3.5 mph - N/A   Overcast
8:54 AM 57.0 °F 55.9 °F 96% 29.99 in 1.5 mi Calm Calm - 0.01 in Rain Light Rain
9:13 AM 57.0 °F 55.9 °F 96% 29.98 in 1.2 mi Calm Calm - 0.01 in Rain Light Rain
9:44 AM 57.9 °F 57.0 °F 97% 29.99 in 1.2 mi Calm Calm - 0.02 in Rain Light Rain
9:54 AM 57.0 °F 57.0 °F 100% 30.00 in 1.2 mi Calm Calm - 0.02 in Rain Light Rain
10:10 AM 57.9 °F 57.0 °F 97% 29.98 in 3.0 mi Calm Calm - 0.01 in Rain Light Rain
10:19 AM 57.9 °F 57.0 °F 97% 29.98 in 4.0 mi Calm Calm - 0.01 in Rain Light Rain
10:26 AM 57.9 °F 57.0 °F 97% 29.98 in 6.0 mi Calm Calm - 0.01 in   Overcast
10:48 AM 57.2 °F 57.2 °F 100% 29.98 in 1.8 mi Calm Calm - 0.01 in   Overcast
10:52 AM 57.2 °F 55.4 °F 94% 29.99 in 0.8 mi Calm Calm - 0.01 in   Overcast
10:54 AM 57.0 °F 55.9 °F 96% 29.99 in 0.8 mi Calm Calm - 0.01 in   Overcast
11:03 AM 57.9 °F 57.0 °F 97% 29.99 in 2.0 mi Calm Calm - N/A   Overcast
11:11 AM 57.9 °F 57.0 °F 97% 29.99 in 4.0 mi Calm Calm - N/A   Overcast
11:51 AM 57.2 °F 57.2 °F 100% 29.98 in 1.8 mi SE 3.5 mph - N/A   Overcast
11:54 AM 57.9 °F 57.0 °F 97% 29.99 in 1.5 mi SE 3.5 mph - N/A   Overcast
12:10 PM 57.9 °F 57.0 °F 97% 29.97 in 1.0 mi SE 4.6 mph - N/A   Overcast
12:17 PM 57.0 °F 55.9 °F 96% 29.98 in 0.8 mi SE 4.6 mph - N/A   Overcast
12:30 PM 57.0 °F 57.0 °F 100% 29.97 in 1.8 mi ESE 4.6 mph - N/A   Overcast
12:35 PM 57.9 °F 57.0 °F 97% 29.98 in 3.0 mi SE 6.9 mph - N/A   Overcast
12:54 PM 57.0 °F 57.0 °F 100% 29.98 in 8.0 mi SE 4.6 mph - N/A   Overcast
1:08 PM 57.0 °F 57.0 °F 100% 29.97 in 2.0 mi ESE 5.8 mph - 0.01 in Rain Light Rain
1:20 PM 57.0 °F 55.9 °F 96% 29.96 in 1.0 mi SSE 5.8 mph - 0.01 in Rain Light Rain
1:28 PM 57.0 °F 55.9 °F 96% 29.96 in 0.8 mi SSE 4.6 mph - 0.01 in Rain Light Rain
1:37 PM 57.9 °F 57.0 °F 97% 29.96 in 2.0 mi SE 4.6 mph - 0.01 in Rain Light Rain
1:45 PM 59.0 °F 57.9 °F 96% 29.96 in 8.0 mi ESE 4.6 mph - 0.01 in Rain Light Rain
1:54 PM 59.0 °F 57.9 °F 96% 29.96 in 8.0 mi SE 5.8 mph - 0.01 in Rain Light Rain
2:13 PM 57.9 °F 57.0 °F 97% 29.95 in 10.0 mi ESE 4.6 mph - 0.00 in Rain Light Rain
2:54 PM 59.0 °F 57.0 °F 93% 29.94 in 10.0 mi ESE 3.5 mph - 0.01 in Rain Light Rain
3:08 PM 59.0 °F 57.0 °F 93% 29.93 in 10.0 mi Calm Calm - 0.00 in Rain Light Rain
3:34 PM 59.0 °F 57.0 °F 93% 29.93 in 1.5 mi SW 5.8 mph - 0.03 in Rain Rain
3:37 PM 55.9 °F 55.0 °F 97% 29.93 in 0.5 mi Calm Calm - 0.04 in Fog , Rain Rain
3:49 PM 57.2 °F 55.4 °F 94% 29.92 in 1.8 mi Calm Calm - 0.05 in Rain Rain
3:51 PM 57.2 °F 55.4 °F 94% 29.93 in 3.0 mi Calm Calm - 0.06 in Rain Light Rain
3:54 PM 57.0 °F 55.9 °F 96% 29.94 in 4.0 mi Calm Calm - 0.06 in Rain Light Rain
4:05 PM 57.0 °F 55.9 °F 96% 29.93 in 2.5 mi Calm Calm - 0.01 in Rain Light Rain
4:12 PM 57.0 °F 57.0 °F 100% 29.92 in 2.5 mi Calm Calm - 0.02 in Rain Rain
4:51 PM 57.2 °F 55.4 °F 94% 29.90 in 4.0 mi ENE 3.5 mph - 0.12 in Rain Light Rain
4:54 PM 57.9 °F 55.9 °F 93% 29.90 in 4.0 mi Calm Calm - 0.12 in Rain Rain
5:27 PM 57.9 °F 57.0 °F 97% 29.89 in 2.0 mi ENE 5.8 mph - 0.04 in Rain Rain
5:54 PM 57.9 °F 57.0 °F 97% 29.89 in 2.0 mi East 5.8 mph - 0.09 in Rain Rain
6:30 PM 57.9 °F 57.0 °F 97% 29.87 in 1.8 mi Variable 6.9 mph - 0.06 in Rain Rain
6:37 PM 57.9 °F 57.0 °F 97% 29.87 in 2.5 mi ESE 8.1 mph - 0.07 in Rain Light Rain
6:54 PM 59.0 °F 57.0 °F 93% 29.87 in 1.8 mi East 6.9 mph - 0.09 in Rain Rain
6:58 PM 59.0 °F 57.9 °F 96% 29.87 in 1.8 mi East 6.9 mph - 0.01 in Rain Rain
7:33 PM 55.9 °F 55.0 °F 97% 29.85 in 1.0 mi East 9.2 mph - 0.04 in Rain Light Rain
7:39 PM 55.9 °F 55.0 °F 97% 29.85 in 2.0 mi ESE 11.5 mph 18.4 mph 0.04 in Rain Light Rain
7:54 PM 57.0 °F 55.9 °F 96% 29.86 in 6.0 mi East 10.4 mph - 0.04 in Rain Light Rain
8:34 PM 57.0 °F 55.9 °F 96% 29.85 in 1.8 mi East 8.1 mph - 0.05 in Rain Rain
8:52 PM 57.2 °F 55.4 °F 94% 29.85 in 3.0 mi Variable 6.9 mph - 0.12 in Rain Rain
8:53 PM 57.0 °F 55.9 °F 96% 29.85 in 3.0 mi East 6.9 mph - 0.13 in Rain Rain
9:04 PM 57.0 °F 55.9 °F 96% 29.84 in 3.0 mi ESE 9.2 mph - 0.03 in Rain Light Rain
9:19 PM 55.9 °F 55.9 °F 100% 29.83 in 2.5 mi East 8.1 mph - 0.08 in Rain Rain
9:26 PM 57.0 °F 55.9 °F 96% 29.83 in 3.0 mi ESE 9.2 mph - 0.09 in Rain Light Rain
9:54 PM 57.0 °F 57.0 °F 100% 29.83 in 7.0 mi ESE 5.8 mph - 0.11 in Rain Light Rain
10:38 PM 57.0 °F 57.0 °F 100% 29.81 in 10.0 mi East 5.8 mph - 0.02 in   Overcast
10:54 PM 55.9 °F 55.0 °F 97% 29.82 in 10.0 mi SE 8.1 mph - 0.02 in   Overcast
11:12 PM 55.9 °F 55.0 °F 97% 29.81 in 10.0 mi ESE 8.1 mph - 0.00 in Rain Light Rain
11:24 PM 55.9 °F 55.9 °F 100% 29.80 in 7.0 mi East 6.9 mph - 0.01 in Rain Light Rain
11:54 PM 55.9 °F 55.9 °F 100% 29.81 in 10.0 mi ESE 8.1 mph - 0.02 in   Overcast